Flag for Switzerland Weather past 2 weeks in Bülach, Zurich, Switzerland

Now
73 °F

Partly sunny.


Feels Like: 76 °F
Forecast: 56 / 85 °F
Wind: 2 mph from Northwest

Location: Zurich-Kloten

Current Time: Aug 4, 2015 at 6:21:37 PM

Latest Report: Aug 4, 2015 at 5:00 PM


Visibility: 22 mi

Pressure: 30.02 "Hg

Humidity: 60%

Dew point: 59 °F

Location of BülachLocation

Historic Weather in Bülach — Graph

°F

Bülach temperature yesterday

Maximum temperature yesterday: 88 °F (at 6:00 PM)
Minimum temperature yesterday: 55 °F (at 4:00 AM)
Average temperature yesterday: 72 °F

Past Weeks' High & Low Weather Summary

 TemperatureHumidityPressure
High95 °F (Jul 22, 3:00 PM)99% (Jul 30, 7:00 AM)30.12 "Hg (Jul 30, 7:00 AM)
Low50 °F (Jul 30, 5:00 AM)27% (Aug 3, 4:00 PM)29.65 "Hg (Jul 24, 7:00 PM)
Average68 °F64%29.94 "Hg
* Reported Jul 20 6:00 PM — Aug 4 5:00 PM, Bülach, Weather by CustomWeather, © 2015

Note: Actual official high and low records may vary slightly from our data, if they occured in-between our weather recording intervals... More about our weather records

Advertising

Bülach weather history for previous 24 hours

 ConditionsComfort  
Time TempWeatherWind HumidityBarometerVisibility
5:00 PM
Tue, Aug 4
73 °FPartly sunny.2 mph60%30.02 "Hg22 mi
4:00 PM71 °FMild.8 mph70%30.04 "HgN/A
3:00 PM70 °FMild.9 mph67%30.04 "HgN/A
2:00 PM72 °FOvercast.12 mph59%30.05 "Hg22 mi
1:00 PM74 °FMild.14 mph57%30.03 "HgN/A
12:00 PM76 °FMild.14 mph53%30.01 "HgN/A
11:00 AM77 °FOvercast.10 mph54%29.98 "Hg19 mi
10:00 AM74 °FMild.8 mph62%29.96 "HgN/A
9:00 AM69 °FMild.2 mph75%29.95 "HgN/A
8:00 AM65 °FOvercast.2 mph84%29.96 "Hg19 mi
7:00 AM58 °FCool.2 mph92%29.98 "HgN/A
6:00 AM58 °FCool.3 mph92%29.98 "HgN/A
5:00 AM58 °FPassing clouds.1 mph90%29.97 "Hg16 mi
4:00 AM60 °FCool.1 mph91%29.98 "HgN/A
3:00 AM61 °FCool.2 mph86%29.99 "HgN/A
2:00 AM61 °FPassing clouds.3 mph84%29.99 "Hg22 mi
1:00 AM64 °FMild.1 mph78%29.98 "HgN/A
12:00 AM66 °FMild.1 mph72%29.97 "HgN/A
10:00 PM
Mon, Aug 3
72 °FMild.3 mph59%29.96 "HgN/A
9:00 PM78 °FWarm.1 mph50%29.94 "HgN/A
8:00 PM84 °FPassing clouds.1 mph34%29.92 "Hg28 mi
7:00 PM87 °FPleasantly warm.2 mph31%29.92 "HgN/A
6:00 PM88 °FPleasantly warm.5 mph30%29.93 "HgN/A
Weather by CustomWeather, © 2015

See weather overviewHow to use our weather pages